Regional Weather Roundup
Issued by NWS

Home | Current Version | Previous Version | Text Only | Print | Product List | Glossary On
Versions: 1 2 3 4 5 6 7 8 9 10 11 12 13 14 15 16 17 18 19 20 21 22 23 24 25 26 27 28 29 30 31 32 33 34 35 36 37 38 39 40 41 42 43 44 45 46 47 48 49 50
694
ASUS45 KBOU 250807
RWRCO

WEATHER ROUNDUP FOR COLORADO
NATIONAL WEATHER SERVICE DENVER/BOULDER CO
200 AM MDT WED MAY 25 2016

NOTE: "FAIR" INDICATES FEW OR NO CLOUDS BELOW 12000 FEET WITH NO
SIGNIFICANT WEATHER AND/OR OBSTRUCTIONS TO VISIBILITY.

COZ001>005-013-030-031-250900-
...NORTHWEST COLORADO...

CITY           SKY/WX    TMP DP  RH WIND       PRES   REMARKS
CRAIG          CLOUDY    46  38  73 W6        30.06R
HAYDEN         FAIR      48  30  49 W9        30.05R
MEEKER         CLOUDY    50  35  56 CALM      30.05R
MOUNT WERNER   NOT AVBL
STEAMBOAT SPGS CLOUDY    43  31  61 SW5       30.04R
WALDEN         FAIR      34  27  75 E6        30.07R WCI  29
$$

COZ006>008-011-250900-
...WEST CENTRAL VALLEYS...

CITY           SKY/WX    TMP DP  RH WIND       PRES   REMARKS
GRAND JUNCTION FAIR      50  28  42 NW3       29.96R
MONTROSE       FAIR      50  23  34 S7        30.03R
EAGLE          CLOUDY    46  25  42 E6        30.03S
RIFLE          FAIR      57  28  33 NW7       29.98R
DELTA          MOCLDY    56  24  28 CALM      29.98R
NUCLA          FAIR      57  16  19 MISG      30.06R
$$

COZ017>023-064>068-250900-
...SOUTHWEST COLORADO...

CITY           SKY/WX    TMP DP  RH WIND       PRES   REMARKS
DURANGO        FAIR      38  20  48 E5        30.10S
CORTEZ         FAIR      57  19  22 S12       30.06S
PAGOSA SPRINGS FAIR      40  17  40 CALM      30.16R
TELLURIDE      FAIR      46  12  25 W5        30.19S
WOLF CREEK PAS FAIR      30  10  43 SW22G32   30.32S WCI  17
$$

COZ009-010-012-014-032>034-037-058>063-250900-
...CENTRAL COLORADO...

CITY           SKY/WX    TMP DP  RH WIND       PRES   REMARKS
ASPEN          MOCLDY    47  22  37 VRB3      30.04S
BUENA VISTA    FAIR      41  14  33 SW5       30.07S
COPPER MTN     NOT AVBL
BERTHOUD PASS  FAIR      30  19  64 W16G24    30.23F WCI  19
COTTONWOOD PAS FAIR      46   5  18 SW10G22   30.15S
GUNNISON       FAIR      36  21  55 CALM      30.11S
KREMMLING      FAIR      43  27  52 SW8       30.07R
LEADVILLE      FAIR      36  16  44 CALM      30.14S
MONARCH PASS   FAIR      32  10  40 W18       30.36S WCI  20
SALIDA         FAIR      49  13  24 W6        30.14R
SUNLIGHT       MOCLDY    36  25  64 CALM      30.19S
WILKERSON PASS FAIR      34  10  37 SW8       30.24S WCI  27
$$

COZ069>075-250900-
...SAN LUIS VALLEY/SANGRE DE CRISTO MOUNTAINS...

CITY           SKY/WX    TMP DP  RH WIND       PRES   REMARKS
ALAMOSA        FAIR      41  19  41 SW9       30.09R
LA VETA PASS   FAIR      43  10  26 S12G23    30.19S
SAGUACHE       FAIR      37  18  44 N8        30.10R
$$

COZ035-036-038>040-250900-
...NORTHERN COLORADO FRONT RANGE...

CITY           SKY/WX    TMP DP  RH WIND       PRES   REMARKS
DENVER INTL AP FAIR      59  48  67 NW13      29.91R
DMNS CITY PARK   N/A     51  45  81 NE5G12    29.92R
AURORA         PTCLDY    48  47  97 S2        29.92R
FRONT RANGE AP NOT AVBL
ERIE MUNI ARPT FAIR      45  43  93 CALM      29.91R
BOULDER MUN AP FAIR      50  43  76 N5        29.92R
CENTENNIAL     FAIR      49  41  74 SW6       29.92S
BROOMFIELD     FAIR      52  46  82 N9        29.93R
FORT COLLINS   FAIR      52  41  66 NE10      29.91S
LONGMONT       FAIR      50  46  87 CALM      29.93R
$$

COZ041-046-047-076>085-087-088-250900-
...PIKES PEAK/PALMER DIVIDE AND SOUTHERN FOOTHILLS...

CITY           SKY/WX    TMP DP  RH WIND       PRES   REMARKS
COLO. SPRINGS  FAIR      60  12  15 W8        29.95S
A. F. ACADEMY  FAIR      59  12  15 VRB6      29.95S
SCHRIEVER AFB  NOT AVBL
ELLICOTT       FAIR     N/A N/A N/A W10       29.92F
FALCON         FAIR      49  16  26 W9        29.99R
FORT CARSON    FAIR      56  18  22 NW7       29.91S
LIMON          FAIR      45  43  93 N6        29.89R
MONUMENT HILL  FAIR      45  28  53 CALM      30.00S
TRINIDAD       FAIR      47  25  42 W8        29.97R
$$

COZ042>045-048>051-090-091-250900-
...NORTHEAST COLORADO...

CITY           SKY/WX    TMP DP  RH WIND       PRES   REMARKS
GREELEY ARPT   FAIR      54  41  62 N9        29.90S
AKRON          CLOUDY    54  52  93 NE10      29.85R
BURLINGTON     FOG       50  48  93 SW3       29.80S VSB 1/4
WRAY           NOT AVBL
STERLING       CLOUDY    54  52  94 NW9       29.84R
HOLYOKE        CLOUDY    59  52  77 N12       29.85F
FORT MORGAN    CLOUDY    56  47  71 N10G17    29.88F
$$

COZ086-089-092>099-250900-
...SOUTHEAST COLORADO...

CITY           SKY/WX    TMP DP  RH WIND       PRES   REMARKS
PUEBLO         FAIR      51  28  41 SE3       29.86R
LA JUNTA       FAIR      64  23  21 W16       29.82S
LAMAR          FAIR      52  38  58 SW6       29.79R
SPRINGFIELD      N/A     55  30  38 W6        29.84S
$$




USA.gov is the U.S. government's official web portal to all federal, state and local government web resources and services.